Simultaneous Nadir Overpasses (SNOs) Predictions

Prediction of SNOs between GOES-17 and NPP Satellite Orbit:

Table of predicted SNOs for the next 14.0 days since TLE Epoch: 8/8/2025
Index Date Time (GOES-17) GOES-17 Lat,Lon NPP Lat,Lon Distance(km) Time Diff (sec)
1 08/08/2025 19:22:18 0.14, -89.50 0.35, -88.43 121.41 80
2 08/10/2025 07:41:25 -0.15, -89.47 0.81, -93.70 482.13 80
3 08/11/2025 07:25:20 -0.14, -89.47 -0.22, -89.17 34.99 80
4 08/13/2025 19:25:52 0.15, -89.52 0.06, -89.93 47.49 80
5 08/14/2025 19:09:48 0.14, -89.52 1.10, -85.40 469.79 80
6 08/16/2025 07:28:54 -0.15, -89.49 0.12, -90.66 133.32 80
7 08/17/2025 07:12:50 -0.16, -89.49 -0.92, -86.13 383.74 80
8 08/18/2025 19:32:06 0.17, -89.53 -0.27, -91.42 216.26 80
9 08/19/2025 19:16:01 0.17, -89.53 0.77, -86.89 301.07 80
10 08/21/2025 07:37:48 -0.18, -89.51 0.44, -92.15 301.22 80
11 08/22/2025 07:19:03 -0.18, -89.52 -0.60, -87.62 216.57 80
